PWSweather.com
Personal Weather Stations
Station Observations
GRD01
Warsaw, LesznoPL 05-084

WarsawLesznoPL 05-084

Lat: 52.257404, Lon: 20.564847

Elevation: 298

Station Type: WH3080

http://pogoda.kampinos.waw.pl

Latest ConditionsUpdated 9:45:00 AM GMT+01:01 Sunday, Feb 18, 2018
Currently Today's Max Today's Min Today's Average
Temperature 34.7°F1.5°C 34.7°F1.5°C 30.4°F-0.9°C 32.7°F0.4°C
Dew Point 26.3°F-3.2°C 28.3°F-2.1°C 24.3°F-4.3°C 26.9°F-2.8°C
Winds 6.9 mph NNW11.1 kmh NNW 10.7 mph NW17.2 kmh NW - 4.2 mph 6.8 kmh
Wind Gusts 13.0 mph20.9 kmh 14.5 mph23.3 kmh - -
Humidity 71% 80% 71% 79%
Pressure 29.77 in1008.1 mb 29.77 in1008.1 mb 29.67 in1004.7 mb -
Hour Temp Dew Point Humidity Winds Wind Gusts Pressure Precip Precip Rate Daily Precip Total
09:45 AM 34.7°F1.5°C 26.3°F-3.2°C 71% 6.9 mph NNW11.1 kmh NNW 13.0 mph20.9 kmh 29.77 in1008.1 mb 0.00 in0.0 mm 0.00 in0.0 mm 0.00 in0.0 mm
09:30 AM 34.2°F1.2°C 26.4°F-3.1°C 73% 10.7 mph NW17.2 kmh NW 14.5 mph23.3 kmh 29.77 in1008.1 mb 0.00 in0.0 mm 0.00 in0.0 mm 0.00 in0.0 mm
09:15 AM 33.6°F0.9°C 27.2°F-2.7°C 77% 8.3 mph NNW13.4 kmh NNW 12.1 mph19.5 kmh 29.77 in1008.1 mb 0.00 in0.0 mm 0.00 in0.0 mm 0.00 in0.0 mm
09:00 AM 33.1°F0.6°C 27.6°F-2.4°C 80% 7.6 mph NW12.2 kmh NW 9.8 mph15.8 kmh 29.76 in1007.8 mb 0.00 in0.0 mm 0.00 in0.0 mm 0.00 in0.0 mm
08:45 AM 32.4°F0.2°C 26.9°F-2.8°C 80% 6.0 mph NW9.7 kmh NW 13.0 mph20.9 kmh 29.76 in1007.8 mb 0.00 in0.0 mm 0.00 in0.0 mm 0.00 in0.0 mm
08:30 AM 31.6°F-0.2°C 26.2°F-3.2°C 80% 3.1 mph NW5.0 kmh NW 9.8 mph15.8 kmh 29.77 in1008.1 mb 0.00 in0.0 mm 0.00 in0.0 mm 0.00 in0.0 mm
08:15 AM 30.9°F-0.6°C 25.5°F-3.6°C 80% 3.8 mph NW6.1 kmh NW 10.7 mph17.2 kmh 29.77 in1008.1 mb 0.00 in0.0 mm 0.00 in0.0 mm 0.00 in0.0 mm
08:00 AM 30.6°F-0.8°C 24.8°F-4.0°C 79% 3.1 mph NW5.0 kmh NW 6.9 mph11.1 kmh 29.76 in1007.8 mb 0.00 in0.0 mm 0.00 in0.0 mm 0.00 in0.0 mm
07:45 AM 30.4°F-0.9°C 24.6°F-4.1°C 79% 2.2 mph NW3.5 kmh NW 4.5 mph7.2 kmh 29.76 in1007.8 mb 0.00 in0.0 mm 0.00 in0.0 mm 0.00 in0.0 mm
07:30 AM 30.4°F-0.9°C 24.3°F-4.3°C 78% 2.2 mph NW3.5 kmh NW 4.5 mph7.2 kmh 29.75 in1007.5 mb 0.00 in0.0 mm 0.00 in0.0 mm 0.00 in0.0 mm
07:15 AM 30.6°F-0.8°C 24.5°F-4.2°C 78% 3.1 mph NW5.0 kmh NW 4.5 mph7.2 kmh 29.76 in1007.8 mb 0.00 in0.0 mm 0.00 in0.0 mm 0.00 in0.0 mm
07:00 AM 30.7°F-0.7°C 24.7°F-4.1°C 78% 1.6 mph NNW2.6 kmh NNW 3.8 mph6.1 kmh 29.75 in1007.5 mb 0.00 in0.0 mm 0.00 in0.0 mm 0.00 in0.0 mm
06:45 AM 31.1°F-0.5°C 25.0°F-3.9°C 78% 2.2 mph NW3.5 kmh NW 6.0 mph9.7 kmh 29.75 in1007.5 mb 0.00 in0.0 mm 0.00 in0.0 mm 0.00 in0.0 mm
06:30 AM 31.6°F-0.2°C 25.9°F-3.4°C 79% 2.2 mph NW3.5 kmh NW 5.4 mph8.7 kmh 29.74 in1007.1 mb 0.00 in0.0 mm 0.00 in0.0 mm 0.00 in0.0 mm
06:15 AM 31.8°F-0.1°C 26.0°F-3.3°C 79% 3.8 mph NW6.1 kmh NW 5.4 mph8.7 kmh 29.74 in1007.1 mb 0.00 in0.0 mm 0.00 in0.0 mm 0.00 in0.0 mm
06:00 AM 31.8°F-0.1°C 25.7°F-3.5°C 78% 3.8 mph NW6.1 kmh NW 5.4 mph8.7 kmh 29.73 in1006.8 mb 0.00 in0.0 mm 0.00 in0.0 mm 0.00 in0.0 mm
05:45 AM 31.8°F-0.1°C 25.4°F-3.7°C 77% 0.7 mph NW1.1 kmh NW 3.8 mph6.1 kmh 29.73 in1006.8 mb 0.00 in0.0 mm 0.00 in0.0 mm 0.00 in0.0 mm
05:30 AM 32.2°F0.1°C 25.8°F-3.4°C 77% 3.8 mph N6.1 kmh N 4.5 mph7.2 kmh 29.72 in1006.4 mb 0.00 in0.0 mm 0.00 in0.0 mm 0.00 in0.0 mm
05:15 AM 32.9°F0.5°C 26.8°F-2.9°C 78% 3.1 mph N5.0 kmh N 5.4 mph8.7 kmh 29.72 in1006.4 mb 0.00 in0.0 mm 0.00 in0.0 mm 0.00 in0.0 mm
05:00 AM 33.3°F0.7°C 27.1°F-2.7°C 78% 3.1 mph N5.0 kmh N 8.3 mph13.4 kmh 29.71 in1006.1 mb 0.00 in0.0 mm 0.00 in0.0 mm 0.00 in0.0 mm
04:45 AM 33.4°F0.8°C 27.3°F-2.6°C 78% 3.8 mph N6.1 kmh N 8.3 mph13.4 kmh 29.71 in1006.1 mb 0.00 in0.0 mm 0.00 in0.0 mm 0.00 in0.0 mm
04:30 AM 33.4°F0.8°C 27.6°F-2.4°C 79% 6.0 mph N9.7 kmh N 9.8 mph15.8 kmh 29.70 in1005.8 mb 0.00 in0.0 mm 0.00 in0.0 mm 0.00 in0.0 mm
04:15 AM 33.8°F1.0°C 28.3°F-2.1°C 80% 7.6 mph N12.2 kmh N 13.0 mph20.9 kmh 29.70 in1005.8 mb 0.00 in0.0 mm 0.00 in0.0 mm 0.00 in0.0 mm
04:00 AM 33.8°F1.0°C 28.3°F-2.1°C 80% 5.4 mph N8.7 kmh N 10.7 mph17.2 kmh 29.70 in1005.8 mb 0.00 in0.0 mm 0.00 in0.0 mm 0.00 in0.0 mm
03:45 AM 33.6°F0.9°C 28.1°F-2.2°C 80% 6.0 mph N9.7 kmh N 9.8 mph15.8 kmh 29.69 in1005.4 mb 0.00 in0.0 mm 0.00 in0.0 mm 0.00 in0.0 mm
03:30 AM 33.6°F0.9°C 28.1°F-2.2°C 80% 5.4 mph NW8.7 kmh NW 9.8 mph15.8 kmh 29.70 in1005.8 mb 0.00 in0.0 mm 0.00 in0.0 mm 0.00 in0.0 mm
03:15 AM 33.6°F0.9°C 28.1°F-2.2°C 80% 6.0 mph NW9.7 kmh NW 13.0 mph20.9 kmh 29.70 in1005.8 mb 0.00 in0.0 mm 0.00 in0.0 mm 0.00 in0.0 mm
03:00 AM 33.6°F0.9°C 28.1°F-2.2°C 80% 3.8 mph NW6.1 kmh NW 7.6 mph12.2 kmh 29.70 in1005.8 mb 0.00 in0.0 mm 0.00 in0.0 mm 0.00 in0.0 mm
02:45 AM 33.6°F0.9°C 28.1°F-2.2°C 80% 3.8 mph NW6.1 kmh NW 9.2 mph14.8 kmh 29.69 in1005.4 mb 0.00 in0.0 mm 0.00 in0.0 mm 0.00 in0.0 mm
02:30 AM 33.6°F0.9°C 28.1°F-2.2°C 80% 5.4 mph NW8.7 kmh NW 8.3 mph13.4 kmh 29.69 in1005.4 mb 0.00 in0.0 mm 0.00 in0.0 mm 0.00 in0.0 mm
02:15 AM 33.6°F0.9°C 28.1°F-2.2°C 80% 3.8 mph NW6.1 kmh NW 7.6 mph12.2 kmh 29.69 in1005.4 mb 0.00 in0.0 mm 0.00 in0.0 mm 0.00 in0.0 mm
02:00 AM 33.4°F0.8°C 27.9°F-2.3°C 80% 3.8 mph NNW6.1 kmh NNW 4.5 mph7.2 kmh 29.69 in1005.4 mb 0.00 in0.0 mm 0.00 in0.0 mm 0.00 in0.0 mm
01:45 AM 33.4°F0.8°C 27.9°F-2.3°C 80% 3.1 mph NNW5.0 kmh NNW 6.0 mph9.7 kmh 29.69 in1005.4 mb 0.00 in0.0 mm 0.00 in0.0 mm 0.00 in0.0 mm
01:30 AM 33.4°F0.8°C 27.9°F-2.3°C 80% 2.2 mph WNW3.5 kmh WNW 5.4 mph8.7 kmh 29.68 in1005.1 mb 0.00 in0.0 mm 0.00 in0.0 mm 0.00 in0.0 mm
01:15 AM 33.4°F0.8°C 27.9°F-2.3°C 80% 5.4 mph NW8.7 kmh NW 6.0 mph9.7 kmh 29.69 in1005.4 mb 0.00 in0.0 mm 0.00 in0.0 mm 0.00 in0.0 mm
01:00 AM 33.6°F0.9°C 28.1°F-2.2°C 80% 3.8 mph NW6.1 kmh NW 6.0 mph9.7 kmh 29.68 in1005.1 mb 0.00 in0.0 mm 0.00 in0.0 mm 0.00 in0.0 mm
12:45 AM 33.6°F0.9°C 28.1°F-2.2°C 80% 3.1 mph NW5.0 kmh NW 5.4 mph8.7 kmh 29.68 in1005.1 mb 0.00 in0.0 mm 0.00 in0.0 mm 0.00 in0.0 mm
12:30 AM 33.6°F0.9°C 28.1°F-2.2°C 80% 2.2 mph NW3.5 kmh NW 4.5 mph7.2 kmh 29.68 in1005.1 mb 0.00 in0.0 mm 0.00 in0.0 mm 0.00 in0.0 mm
12:15 AM 33.6°F0.9°C 28.1°F-2.2°C 80% 3.1 mph N5.0 kmh N 5.4 mph8.7 kmh 29.67 in1004.7 mb 0.00 in0.0 mm 0.00 in0.0 mm 0.00 in0.0 mm
12:00 AM 33.8°F1.0°C 28.3°F-2.1°C 80% 2.2 mph NW3.5 kmh NW 4.5 mph7.2 kmh 29.68 in1005.1 mb 0.00 in0.0 mm 0.00 in0.0 mm 0.00 in0.0 mm